Location: Chippewa Lake
(41.0698°N, 81.9010°W)
Time: 22:05:22
(UTC+00:00)

CZ-4C R/B - Pass Details

Date: 09 May 2021
Orbit: 462 x 634 km, 98.0° (Epoch: 17 June)

Event Time Altitude Azimuth Distance (km) Brightness Sun altitude
Exits shadow 08:53:49 21° 215° (SW) 1,404 4.8 -14.0°
Maximum altitude 08:55:57 33° 262° (W) 1,056 4.3 -13.6°
Drops below altitude 10° 08:59:49 10° 327° (NNW) 1,962 6.2 -13.1°
Sets 09:02:09 0° 337° (NNW) 2,846 7.2 -12.7°
